Le nostre stazioni meteo in Italia

Pubblicità
Il mio iltempo24.it
Braemar, Gran Bretagna (99089): Temperatura & dewpoint: 19.05.2019 07:00:00 - 25.05.2019 07:00:00 (BST)Braemar, Gran Bretagna (99089): Temperatura -20cm & Temperatura -100cm: 19.05.2019 07:00:00 - 25.05.2019 07:00:00 (BST)Braemar, Gran Bretagna (99089): precipitazioni: 19.05.2019 07:00:00 - 25.05.2019 07:00:00 (BST)
Data & Tempo tt [°C] td [°C] tt -20cm [°C] tt -100cm [°C] rr [mm]
25.05.2019 07:00:00 - - - - -
25.05.2019 06:00:00 1,7 1,6 - - 0,0
25.05.2019 05:00:00 1,0 0,9 - - 0,0
25.05.2019 04:00:00 1,1 0,7 - - 0,0
25.05.2019 03:00:00 1,7 1,2 - - 0,0
25.05.2019 02:00:00 3,0 2,4 - - 0,0
25.05.2019 01:00:00 3,3 1,6 - - 0,0
25.05.2019 00:00:00 5,0 2,7 - - 0,0
24.05.2019 23:00:00 6,6 3,0 - - 0,0
24.05.2019 22:00:00 8,9 4,2 - - 0,0
24.05.2019 21:00:00 9,9 3,9 - - 0,0
24.05.2019 20:00:00 11,0 3,8 - - 0,0
24.05.2019 19:00:00 12,3 2,6 - - 0,0
24.05.2019 18:00:00 13,4 4,4 - - 0,0
24.05.2019 17:00:00 14,7 5,6 - - 0,0
24.05.2019 16:00:00 14,0 4,9 - - 0,0
24.05.2019 15:00:00 14,7 4,2 - - 0,0
24.05.2019 14:00:00 15,2 5,7 - - 0,0
24.05.2019 13:00:00 14,7 6,4 - - 0,0
24.05.2019 12:00:00 13,7 5,8 - - 0,0
24.05.2019 11:00:00 12,9 4,7 - - 0,0
24.05.2019 10:00:00 11,6 2,8 10,7 9,7 0,0
24.05.2019 09:00:00 10,6 3,5 - - 0,0
24.05.2019 08:00:00 9,5 4,0 - - 0,0
24.05.2019 07:00:00 8,5 4,5 - - 0,0
24.05.2019 06:00:00 7,1 4,1 - - 0,0
24.05.2019 05:00:00 6,7 4,2 - - 0,0
24.05.2019 04:00:00 7,3 4,6 - - 0,0
24.05.2019 03:00:00 7,6 4,8 - - 0,0
24.05.2019 02:00:00 7,3 4,8 - - 0,0
24.05.2019 01:00:00 7,3 4,8 - - 0,0
24.05.2019 00:00:00 7,5 4,6 - - 0,0
23.05.2019 23:00:00 7,9 4,8 - - 0,0
23.05.2019 22:00:00 8,5 4,8 - - 0,0
23.05.2019 21:00:00 9,1 4,7 - - 0,0
23.05.2019 20:00:00 9,8 5,0 - - 0,0
23.05.2019 19:00:00 10,2 5,0 - - 0,0
23.05.2019 18:00:00 10,8 5,7 - - 0,0
23.05.2019 17:00:00 11,1 5,2 - - 0,0
23.05.2019 16:00:00 12,4 5,9 - - 0,0
23.05.2019 15:00:00 12,4 6,5 - - 0,0
23.05.2019 14:00:00 12,5 6,8 - - 0,0
23.05.2019 13:00:00 12,1 7,2 - - 0,0
23.05.2019 12:00:00 10,7 7,1 - - 0,0
23.05.2019 11:00:00 9,5 6,6 - - 0,0
23.05.2019 10:00:00 8,4 6,6 10,9 9,7 0,6
23.05.2019 09:00:00 8,4 6,7 - - 0,2
23.05.2019 08:00:00 7,9 6,4 - - 0,2
23.05.2019 07:00:00 7,8 6,6 - - 0,4
23.05.2019 06:00:00 7,9 6,1 - - 0,0
23.05.2019 05:00:00 8,0 6,1 - - 0,0
23.05.2019 04:00:00 8,5 5,9 - - 0,0
23.05.2019 03:00:00 8,6 6,0 - - 0,0
23.05.2019 02:00:00 8,3 6,1 - - 0,0
23.05.2019 01:00:00 8,3 6,2 - - 0,0
23.05.2019 00:00:00 8,2 6,2 - - 0,0
22.05.2019 23:00:00 8,3 6,4 - - 0,0
22.05.2019 22:00:00 7,8 6,7 - - 0,0
22.05.2019 21:00:00 8,5 6,6 - - 0,0
22.05.2019 20:00:00 9,5 6,5 - - 0,2
22.05.2019 19:00:00 9,4 7,1 - - 0,2
22.05.2019 18:00:00 10,7 7,4 - - 0,4
22.05.2019 17:00:00 11,2 7,5 - - 0,2
22.05.2019 16:00:00 11,8 6,6 - - 0,0
22.05.2019 15:00:00 12,5 7,6 - - 0,2
22.05.2019 14:00:00 11,5 8,2 - - 0,0
22.05.2019 13:00:00 10,3 7,3 - - 0,2
22.05.2019 12:00:00 9,7 7,2 - - 0,4
22.05.2019 11:00:00 10,1 7,9 - - 0,0
22.05.2019 10:00:00 7,7 6,0 11,0 9,7 0,2
22.05.2019 09:00:00 6,5 5,0 - - 0,4
22.05.2019 08:00:00 5,7 4,3 - - 1,2
22.05.2019 07:00:00 6,1 4,1 - - 0,2
22.05.2019 06:00:00 5,3 3,5 - - 0,0
22.05.2019 05:00:00 4,7 2,3 - - 0,0
22.05.2019 04:00:00 2,8 1,9 - - 0,0
22.05.2019 03:00:00 2,2 1,2 - - 0,0
22.05.2019 02:00:00 3,2 2,2 - - 0,0
22.05.2019 01:00:00 4,5 2,6 - - 0,0
22.05.2019 00:00:00 6,1 3,4 - - 0,0
21.05.2019 23:00:00 6,4 3,7 - - 0,0
21.05.2019 22:00:00 7,4 3,3 - - 0,0
21.05.2019 21:00:00 8,5 3,3 - - 0,0
21.05.2019 20:00:00 9,0 3,5 - - 0,0
21.05.2019 19:00:00 10,6 3,8 - - 0,0
21.05.2019 18:00:00 11,6 3,9 - - 0,0
21.05.2019 17:00:00 13,3 3,3 - - 0,0
21.05.2019 16:00:00 12,3 3,8 - - 0,0
21.05.2019 15:00:00 11,8 4,4 - - 0,0
21.05.2019 14:00:00 11,3 5,1 - - 0,0
21.05.2019 13:00:00 10,5 4,8 - - 0,0
21.05.2019 12:00:00 10,0 5,0 - - 0,0
21.05.2019 11:00:00 9,4 5,2 - - 0,0
21.05.2019 10:00:00 8,8 5,5 11,4 9,5 0,0
21.05.2019 09:00:00 8,4 5,3 - - 0,0
21.05.2019 08:00:00 7,5 6,2 - - 0,0
21.05.2019 07:00:00 6,6 6,2 - - 3,4
21.05.2019 06:00:00 6,6 6,0 - - 2,6
21.05.2019 05:00:00 6,9 6,4 - - 2,0
21.05.2019 04:00:00 7,3 6,4 - - 1,4
21.05.2019 03:00:00 7,9 7,3 - - 1,4
21.05.2019 02:00:00 8,2 7,6 - - 0,8
21.05.2019 01:00:00 8,4 7,8 - - 2,4
21.05.2019 00:00:00 8,6 7,9 - - 2,2
20.05.2019 23:00:00 8,9 8,1 - - 0,6
20.05.2019 22:00:00 9,3 8,7 - - 0,8
20.05.2019 21:00:00 9,7 9,2 - - 1,4
20.05.2019 20:00:00 9,9 9,1 - - 2,2
20.05.2019 19:00:00 10,5 9,0 - - 2,2
20.05.2019 18:00:00 11,4 9,4 - - 0,4
20.05.2019 17:00:00 12,2 8,1 - - 0,0
20.05.2019 16:00:00 12,2 7,9 - - 0,0
20.05.2019 15:00:00 13,3 6,6 - - 0,0
20.05.2019 14:00:00 13,0 7,8 - - 0,0
20.05.2019 13:00:00 12,6 7,0 - - 0,0
20.05.2019 12:00:00 10,8 8,3 - - 2,4
20.05.2019 11:00:00 10,6 8,3 - - 3,4
20.05.2019 10:00:00 11,9 8,6 11,2 9,4 0,0
20.05.2019 09:00:00 11,2 7,9 - - 0,2
20.05.2019 08:00:00 9,9 8,4 - - 0,0
20.05.2019 07:00:00 9,0 8,6 - - 0,0
20.05.2019 06:00:00 8,0 7,8 - - 0,0
20.05.2019 05:00:00 8,2 7,9 - - 0,0
20.05.2019 04:00:00 8,5 8,0 - - 0,0
20.05.2019 03:00:00 8,6 8,1 - - 0,0
20.05.2019 02:00:00 8,7 8,2 - - 0,0
20.05.2019 01:00:00 9,0 8,3 - - 0,0
20.05.2019 00:00:00 9,4 8,8 - - 0,0
19.05.2019 23:00:00 9,5 8,7 - - 0,2
19.05.2019 22:00:00 10,2 8,8 - - 0,0
19.05.2019 21:00:00 10,8 8,8 - - 0,0
19.05.2019 20:00:00 11,3 8,8 - - 0,0
19.05.2019 19:00:00 11,7 8,5 - - 0,0
19.05.2019 18:00:00 13,1 8,3 - - 0,0
19.05.2019 17:00:00 12,7 8,4 - - 0,0
19.05.2019 16:00:00 13,8 7,9 - - 0,0
19.05.2019 15:00:00 13,7 7,9 - - 0,0
19.05.2019 14:00:00 14,3 8,0 - - 0,0
19.05.2019 13:00:00 13,1 8,3 - - 0,0
19.05.2019 12:00:00 11,8 7,6 - - 0,0
19.05.2019 11:00:00 11,6 7,5 - - 0,0
19.05.2019 10:00:00 10,8 7,7 10,9 9,2 0,0
19.05.2019 09:00:00 10,9 7,7 - - 0,0
19.05.2019 08:00:00 9,4 8,0 - - 0,0
19.05.2019 07:00:00 8,7 7,9 - - 0,0

tt = Temperatura
td = dewpoint
tt -20cm = Temperatura -20cm
tt -100cm = Temperatura -100cm
rr = precipitazioni

Stazioni seguenti

WeatherPro
AMSI
MeteoEarth